[[{"header":{"parameterUnit":"m.s-1","parameterCategory":1,"la1":30.2991,"la2":30.254,"lo1":-89.0895,"lo2":-89.0444,"dy":0.0017,"dx":0.0017,"nx":28,"ny":28,"refTime":"2023-07-23T09:00:00:Z","depth":0,"parameterNumber":2,"parameterNumberName":"U-component_of_WINDS"},"data":[0,0,0,0,0,0,0,0,0,0,0,0,0,0,0,0,0,0,0,0,0,0,0,0,0,0,0,0,0,0,0,0,0,0,0,0,0,0,0,0,0,0,0,0,0,0,0,0,0,0,0,0,0,0,0,0,0,0,1.4704,1.4704,0,1.471,1.471,1.4711,1.4696,1.4695,1.4695,1.4695,1.47,1.4701,1.4701,0,0,0,0,0,0,0,0,0,0,0,0,0,1.4678,1.4679,1.4704,1.4704,1.4704,1.471,1.471,1.4711,1.4696,1.4695,1.4695,1.4694,1.47,1.4701,1.4701,0,0,0,0,0,0,0,0,0,0,0,0,0,1.4687,1.4679,1.4704,1.4697,1.4697,1.471,1.471,1.4711,1.4696,1.4695,1.4695,1.4694,1.47,1.4701,1.4701,1.4721,0,0,1.4704,1.4705,0,0,0,0,0,0,0,0,1.4687,1.4688,1.4698,1.4698,1.4697,1.4702,1.4704,1.4714,1.4696,1.4696,1.4694,1.4694,1.4701,1.4702,1.4705,1.4721,1.4721,1.4704,1.4705,1.4705,1.4705,0,0,0,0,0,0,0,1.4686,1.4688,1.4706,1.4698,1.4698,1.4694,1.4695,1.4705,1.4703,1.4696,1.4695,1.4696,1.4701,1.4704,1.4705,1.4722,1.4704,1.4705,1.4706,1.4706,1.4757,1.4758,0,0,0,0,0,0,1.4686,1.4688,1.4706,1.4706,1.469,1.4695,1.4696,1.4701,1.4702,1.4702,1.4697,1.4696,1.4703,1.4704,1.4705,1.4729,1.4705,1.4706,1.4706,1.4756,1.4757,1.4758,0,0,0,0,0,0,1.4686,1.4688,1.4706,1.4697,1.4699,1.4696,1.4702,1.4701,1.4704,1.4703,1.4702,1.4701,1.4702,1.4704,1.4718,1.4729,1.4706,1.4707,1.4755,1.4756,1.4758,1.4778,0,0,0,0,0,0,1.4685,1.4688,1.4695,1.4697,1.4699,1.4719,1.4703,1.4702,1.4706,1.4705,1.4706,1.4706,1.4702,1.4716,1.4719,1.473,1.4708,1.4754,1.4756,1.4757,1.4776,1.478,1.4783,0,0,0,0,0,1.4684,1.47,1.4696,1.4698,1.4708,1.4719,1.472,1.4716,1.4707,1.4715,1.4714,1.4706,1.4728,1.4718,1.472,1.4732,1.4753,1.4755,1.4757,1.4775,1.4779,1.4783,0,0,0,0,0,0,1.4699,1.47,1.4695,1.4712,1.4716,1.4717,1.4726,1.472,1.4726,1.4724,1.4718,1.4718,1.4734,1.4734,1.4724,1.4752,1.4739,1.4741,1.4752,1.4756,1.4759,1.4759,1.4709,0,0,0,0,0,1.4704,1.4713,1.4713,1.4728,1.473,1.4728,1.4732,1.4729,1.4732,1.4734,1.4734,1.4737,1.4745,1.475,1.4757,1.4776,1.4777,1.4786,1.4789,1.4792,1.4794,1.4806,1.481,1.4764,1.4764,1.4764,0,0,1.4715,1.4717,1.4722,1.4731,1.4734,1.4744,1.4729,1.474,1.4747,1.4735,1.4749,1.4749,1.4753,1.477,1.4778,1.4771,1.4807,1.4794,1.4796,1.4797,1.4808,1.4813,1.4817,1.4765,1.4765,1.4765,0,0,1.4739,1.4741,1.4755,1.4758,1.4762,1.4761,1.4764,1.4766,1.4767,1.4781,1.4773,1.4781,1.4794,1.4798,1.4801,1.483,1.4823,1.4832,1.4849,1.4861,1.4865,1.4868,1.488,1.4884,1.4834,1.4834,1.4834,0,1.4752,1.4767,1.4762,1.4774,1.4779,1.4769,1.4783,1.4786,1.4792,1.4796,1.4789,1.4807,1.4808,1.4827,1.4834,1.4837,1.4841,1.4832,1.4865,1.4868,1.4871,1.4882,1.4886,1.4836,1.4835,1.4835,1.4835,0,1.4783,1.4793,1.4803,1.4811,1.4817,1.483,1.4827,1.4834,1.483,1.483,1.4845,1.4847,1.4855,1.4859,1.4855,1.4878,1.4874,1.4866,1.4852,1.4877,1.4887,1.4891,1.4837,1.4837,1.4837,1.4836,0,0,1.4816,1.4822,1.4826,1.4831,1.4836,1.4844,1.4857,1.4866,1.4872,1.4877,1.4888,1.4901,1.4894,1.4898,1.4894,1.4904,1.4929,1.4895,1.4895,1.4902,1.4957,1.4964,1.4969,1.4924,1.4925,1.4926,1.4957,0,1.4842,1.4865,1.4862,1.4884,1.4894,1.4886,1.4898,1.4902,1.4903,1.4912,1.4912,1.4922,1.4911,1.4914,1.4923,1.4924,1.494,1.4921,1.4936,1.4936,1.4936,1.4974,1.4981,1.501,1.4961,1.4961,1.4962,0,1.4875,1.4883,1.4906,1.4912,1.4916,1.4926,1.4935,1.4944,1.4949,1.4949,1.4955,1.495,1.4963,1.4949,1.4969,1.4957,1.4962,1.4964,1.4965,1.4967,1.4951,1.4978,1.5019,1.5025,1.4968,1.4967,1.4967,0,1.4899,1.4915,1.4932,1.4935,1.4941,1.4949,1.4952,1.4957,1.4963,1.4971,1.4975,1.4984,1.4989,1.4997,1.4995,1.4985,1.5015,1.5001,1.5016,1.5017,1.5024,1.5023,1.5068,1.5025,1.5025,1.5025,1.5025,0,1.4929,1.4944,1.4943,1.4953,1.497,1.4967,1.4984,1.4986,1.4991,1.5002,1.4995,1.5005,1.5001,1.5012,1.501,1.5028,1.503,1.503,1.503,1.5032,1.5032,1.5036,1.5034,1.5026,1.5026,1.5026,1.5026,0,1.4958,1.4958,1.4976,1.4981,1.4983,1.4996,1.5,1.501,1.5011,1.5025,1.5028,1.5029,1.5041,1.5039,1.5052,1.5052,1.5074,1.507,1.5072,1.5072,1.5088,1.5087,1.5138,1.5145,1.5097,1.5097,1.5098,0,1.4978,1.499,1.4997,1.5004,1.5008,1.5019,1.5026,1.5024,1.5031,1.504,1.5049,1.5061,1.507,1.509,1.5092,1.5103,1.51,1.5117,1.5102,1.5104,1.5102,1.5102,1.5104,1.512,1.5121,1.5121,1.5122,0,1.5013,1.5013,1.5024,1.5035,1.5043,1.5052,1.5059,1.5065,1.5064,1.5073,1.5086,1.5093,1.5108,1.512,1.513,1.5134,1.5128,1.5127,1.5131,1.5134,1.5135,1.5136,1.5082,1.5126,1.5125,1.5125,1.5125,1.5125,1.504,1.5051,1.5058,1.507,1.5076,1.5084,1.5094,1.5096,1.5107,1.512,1.5117,1.5132,1.5139,1.5153,1.5157,1.5169,1.5163,1.5169,1.5171,1.5173,1.5176,1.5132,1.5171,1.5171,1.5171,1.5171,1.5171,0,1.5076,1.5081,1.5092,1.5104,1.5114,1.5108,1.5117,1.5126,1.5139,1.5146,1.5156,1.5172,1.5184,1.5188,1.52,1.5209,1.5207,1.5212,1.5212,1.5214,1.518,1.5175,1.5214,1.5214,1.5214,1.5214,1.5214,1.5214,1.5096,1.5115,1.5116,1.5138,1.5143,1.5158,1.5164,1.5171,1.5177,1.5195,1.5206,1.5208,1.5214,1.5227,1.5239,1.5239,1.5245,1.5252,1.5252,1.522,1.5216,1.5212,1.5208,1.5253,1.5253,1.5285,1.5285,1.5285]},{"header":{"parameterUnit":"m.s-1","parameterCategory":1,"la1":30.2991,"la2":30.254,"lo1":-89.0895,"lo2":-89.0444,"dy":0.0017,"dx":0.0017,"nx":28,"ny":28,"refTime":"2023-07-23T09:00:00:Z","depth":0,"parameterNumber":3,"parameterNumberName":"V-component_of_WINDS"},"data":[0,0,0,0,0,0,0,0,0,0,0,0,0,0,0,0,0,0,0,0,0,0,0,0,0,0,0,0,0,0,0,0,0,0,0,0,0,0,0,0,0,0,0,0,0,0,0,0,0,0,0,0,0,0,0,0,0,0,-1.2168,-1.2167,0,-1.2116,-1.2116,-1.2115,-1.2079,-1.2078,-1.2078,-1.2078,-1.202,-1.2019,-1.2018,0,0,0,0,0,0,0,0,0,0,0,0,0,-1.2232,-1.2231,-1.2168,-1.2167,-1.2167,-1.2116,-1.2116,-1.2115,-1.2079,-1.2078,-1.2078,-1.2078,-1.2021,-1.2019,-1.2018,0,0,0,0,0,0,0,0,0,0,0,0,0,-1.2194,-1.223,-1.2168,-1.2143,-1.214,-1.2116,-1.2115,-1.2115,-1.2079,-1.2078,-1.2078,-1.2078,-1.2021,-1.2019,-1.2017,-1.2013,0,0,-1.2011,-1.2011,0,0,0,0,0,0,0,0,-1.2196,-1.2192,-1.2147,-1.2145,-1.2141,-1.2104,-1.2117,-1.2081,-1.2079,-1.2102,-1.2078,-1.2077,-1.2048,-1.2044,-1.2035,-1.2011,-1.2008,-1.2011,-1.201,-1.2009,-1.2009,0,0,0,0,0,0,0,-1.2199,-1.2194,-1.2147,-1.2147,-1.2143,-1.2133,-1.2127,-1.211,-1.2078,-1.21,-1.2097,-1.2092,-1.2046,-1.2037,-1.2033,-1.2007,-1.2011,-1.201,-1.2008,-1.2008,-1.1976,-1.1976,0,0,0,0,0,0,-1.2206,-1.2196,-1.2149,-1.2146,-1.2169,-1.2132,-1.2125,-1.2116,-1.2078,-1.2072,-1.2092,-1.209,-1.204,-1.2035,-1.2031,-1.2023,-1.2009,-1.2008,-1.2006,-1.1976,-1.1976,-1.1976,0,0,0,0,0,0,-1.2208,-1.2202,-1.2151,-1.217,-1.2163,-1.2131,-1.2121,-1.2115,-1.2106,-1.2072,-1.2066,-1.2089,-1.204,-1.2034,-1.2018,-1.202,-1.2007,-1.2005,-1.1975,-1.1976,-1.1976,-1.2007,0,0,0,0,0,0,-1.221,-1.2203,-1.2202,-1.2171,-1.2162,-1.2141,-1.2121,-1.2114,-1.2103,-1.21,-1.2067,-1.2061,-1.2039,-1.2021,-1.2016,-1.2018,-1.2003,-1.1975,-1.1976,-1.1976,-1.2006,-1.2009,-1.2011,0,0,0,0,0,-1.2212,-1.2212,-1.2203,-1.2197,-1.2161,-1.2141,-1.2136,-1.2112,-1.2103,-1.2101,-1.208,-1.2062,-1.2021,-1.202,-1.2014,-1.2015,-1.1975,-1.1975,-1.1976,-1.2005,-1.2008,-1.2011,0,0,0,0,0,0,-1.2244,-1.2208,-1.2196,-1.2187,-1.2167,-1.2135,-1.2132,-1.2116,-1.2098,-1.2095,-1.2065,-1.2058,-1.2045,-1.2028,-1.2027,-1.2008,-1.1996,-1.1995,-1.202,-1.2023,-1.2025,-1.2029,-1.2002,0,0,0,0,0,-1.225,-1.2238,-1.2207,-1.2201,-1.2192,-1.2164,-1.2154,-1.2138,-1.2115,-1.2106,-1.2084,-1.2062,-1.2044,-1.2032,-1.2014,-1.2004,-1.1995,-1.2001,-1.2004,-1.2006,-1.2006,-1.1998,-1.2,-1.1979,-1.1979,-1.1979,0,0,-1.2262,-1.2241,-1.2235,-1.2207,-1.219,-1.2177,-1.2157,-1.2144,-1.2134,-1.2104,-1.2088,-1.2071,-1.2044,-1.2031,-1.2024,-1.2016,-1.201,-1.2007,-1.2009,-1.2007,-1.1999,-1.2001,-1.2003,-1.1979,-1.1979,-1.1979,0,0,-1.2277,-1.226,-1.2253,-1.2237,-1.2212,-1.2193,-1.2192,-1.2161,-1.2149,-1.2133,-1.211,-1.2097,-1.2067,-1.2048,-1.2035,-1.2043,-1.2026,-1.2038,-1.2052,-1.2044,-1.2046,-1.2047,-1.2049,-1.205,-1.2038,-1.2038,-1.2038,0,-1.2294,-1.2275,-1.2251,-1.224,-1.2228,-1.2202,-1.2194,-1.2179,-1.2148,-1.214,-1.2133,-1.2094,-1.2075,-1.2056,-1.2058,-1.2049,-1.2045,-1.2041,-1.2048,-1.2049,-1.205,-1.2051,-1.2051,-1.204,-1.204,-1.2039,-1.2039,0,-1.2297,-1.2284,-1.2281,-1.2254,-1.2242,-1.2232,-1.2206,-1.2196,-1.218,-1.2162,-1.2145,-1.212,-1.2096,-1.2091,-1.2075,-1.207,-1.2066,-1.2054,-1.204,-1.2054,-1.2054,-1.2054,-1.2042,-1.2041,-1.2041,-1.2041,0,0,-1.2329,-1.229,-1.2289,-1.2276,-1.2247,-1.2235,-1.2224,-1.2202,-1.2193,-1.2173,-1.2162,-1.2138,-1.2126,-1.2111,-1.2093,-1.2087,-1.2093,-1.2075,-1.2074,-1.2078,-1.2084,-1.2093,-1.2094,-1.2082,-1.2082,-1.2082,-1.2086,0,-1.2338,-1.2318,-1.2297,-1.2283,-1.227,-1.2246,-1.2236,-1.2216,-1.2198,-1.2183,-1.2163,-1.2146,-1.2133,-1.2123,-1.2116,-1.2094,-1.2094,-1.2093,-1.2069,-1.2068,-1.2075,-1.2094,-1.2103,-1.2108,-1.2086,-1.2086,-1.2086,0,-1.2346,-1.2329,-1.2315,-1.2286,-1.228,-1.2272,-1.2249,-1.2236,-1.2212,-1.22,-1.2184,-1.2165,-1.215,-1.2139,-1.2117,-1.2117,-1.2106,-1.2094,-1.2093,-1.2089,-1.2077,-1.2089,-1.211,-1.211,-1.2087,-1.2086,-1.2086,0,-1.237,-1.2343,-1.233,-1.232,-1.2287,-1.2282,-1.2267,-1.2243,-1.2231,-1.2211,-1.2203,-1.2181,-1.2169,-1.2152,-1.2127,-1.2122,-1.2107,-1.2094,-1.2094,-1.2095,-1.2091,-1.2092,-1.2109,-1.2086,-1.2086,-1.2086,-1.2086,0,-1.2382,-1.2373,-1.2341,-1.2333,-1.2323,-1.2298,-1.2288,-1.2271,-1.225,-1.2237,-1.2215,-1.2203,-1.2171,-1.2155,-1.2136,-1.212,-1.2114,-1.2102,-1.2097,-1.2104,-1.2105,-1.2095,-1.2094,-1.2087,-1.2087,-1.2087,-1.2086,0,-1.2405,-1.2383,-1.2368,-1.2339,-1.2331,-1.2324,-1.2298,-1.2289,-1.2271,-1.2255,-1.225,-1.222,-1.22,-1.2174,-1.2145,-1.2132,-1.2118,-1.211,-1.2126,-1.2123,-1.2124,-1.2124,-1.2134,-1.2134,-1.2113,-1.2113,-1.2114,0,-1.2414,-1.2407,-1.2377,-1.2368,-1.2355,-1.234,-1.2328,-1.2303,-1.2291,-1.2264,-1.2257,-1.2236,-1.2218,-1.2187,-1.2161,-1.2139,-1.213,-1.2135,-1.2126,-1.2133,-1.2128,-1.2129,-1.2127,-1.2137,-1.2137,-1.2138,-1.2138,0,-1.243,-1.242,-1.2404,-1.2385,-1.2372,-1.2355,-1.2337,-1.233,-1.2301,-1.2288,-1.2269,-1.2254,-1.2226,-1.2204,-1.2179,-1.2162,-1.2144,-1.2141,-1.214,-1.2146,-1.2155,-1.2149,-1.2131,-1.2141,-1.214,-1.214,-1.214,-1.214,-1.2446,-1.2438,-1.2416,-1.24,-1.2384,-1.2367,-1.2357,-1.2338,-1.2322,-1.2298,-1.2284,-1.2264,-1.2239,-1.2204,-1.2188,-1.2171,-1.2164,-1.2163,-1.2162,-1.2161,-1.2163,-1.2159,-1.2166,-1.2166,-1.2166,-1.2166,-1.2166,0,-1.246,-1.2445,-1.243,-1.2406,-1.2393,-1.238,-1.2359,-1.2348,-1.2331,-1.2311,-1.2294,-1.2271,-1.225,-1.2223,-1.22,-1.2192,-1.2183,-1.2186,-1.2186,-1.2182,-1.2171,-1.2174,-1.2194,-1.2194,-1.2194,-1.2194,-1.2194,-1.2194,-1.2466,-1.2453,-1.244,-1.2418,-1.2402,-1.2385,-1.2374,-1.2358,-1.2341,-1.2317,-1.23,-1.2284,-1.2261,-1.2236,-1.2215,-1.2208,-1.22,-1.2205,-1.2195,-1.2185,-1.2183,-1.218,-1.2183,-1.2204,-1.2204,-1.2207,-1.2207,-1.2207]}]]